TimeEDT,TemperatureF,Dew PointF,Humidity,Sea Level PressureIn,VisibilityMPH,Wind Direction,Wind SpeedMPH,Gust SpeedMPH,PrecipitationIn,Events,Conditions,WindDirDegrees,DateUTC
12:55 AM,59.0,55.9,90,30.16,10.0,Calm,Calm,-,N/A,,Clear,0,2012-10-05 04:55:00
1:55 AM,59.0,56.1,90,30.15,10.0,South,3.5,-,N/A,,Clear,170,2012-10-05 05:55:00
2:55 AM,57.9,55.6,92,30.15,10.0,SSW,4.6,-,N/A,,Partly Cloudy,210,2012-10-05 06:55:00
3:55 AM,57.0,55.4,94,30.14,10.0,South,4.6,-,N/A,,Clear,190,2012-10-05 07:55:00
4:55 AM,56.7,55.2,95,30.13,10.0,South,4.6,-,N/A,,Clear,180,2012-10-05 08:55:00
5:55 AM,55.9,54.5,95,30.13,10.0,Calm,Calm,-,N/A,,Scattered Clouds,0,2012-10-05 09:55:00
6:55 AM,57.4,55.4,93,30.14,10.0,South,4.6,-,N/A,,Clear,180,2012-10-05 10:55:00
7:55 AM,56.7,54.9,94,30.14,10.0,West,3.5,-,N/A,,Partly Cloudy,260,2012-10-05 11:55:00
8:55 AM,59.5,57.2,92,30.13,10.0,South,3.5,-,N/A,,Clear,180,2012-10-05 12:55:00
9:55 AM,64.2,59.2,84,30.12,10.0,SSW,3.5,-,N/A,,Clear,210,2012-10-05 13:55:00
10:55 AM,68.9,60.8,75,30.12,10.0,South,5.8,-,N/A,,Clear,180,2012-10-05 14:55:00
11:55 AM,73.6,61.0,65,30.11,10.0,SW,11.5,-,N/A,,Partly Cloudy,220,2012-10-05 15:55:00
12:55 PM,73.9,61.2,64,30.09,10.0,West,11.5,-,N/A,,Partly Cloudy,260,2012-10-05 16:55:00
1:55 PM,76.3,60.3,57,30.06,10.0,WSW,11.5,-,N/A,,Partly Cloudy,250,2012-10-05 17:55:00
2:55 PM,76.6,57.7,52,30.03,10.0,SW,11.5,-,N/A,,Mostly Cloudy,230,2012-10-05 18:55:00
3:55 PM,75.9,59.0,56,30.01,10.0,West,9.2,-,N/A,,Scattered Clouds,260,2012-10-05 19:55:00
4:55 PM,74.8,61.2,62,29.99,10.0,West,8.1,-,N/A,,Mostly Cloudy,280,2012-10-05 20:55:00
5:55 PM,72.3,61.3,68,29.97,10.0,Calm,Calm,-,N/A,,Mostly Cloudy,0,2012-10-05 21:55:00
6:55 PM,69.6,62.8,79,29.96,10.0,Calm,Calm,-,N/A,,Overcast,0,2012-10-05 22:55:00
7:55 PM,68.4,62.2,81,29.96,10.0,Calm,Calm,-,N/A,,Overcast,0,2012-10-05 23:55:00
8:55 PM,66.6,61.5,84,29.96,10.0,NW,11.5,-,N/A,,Overcast,310,2012-10-06 00:55:00
9:55 PM,52.3,50.0,92,30.01,10.0,NW,15.0,19.6,0.00,Rain,Light Rain,320,2012-10-06 01:55:00
10:55 PM,47.3,44.8,91,30.03,10.0,North,8.1,19.6,0.00,Rain,Light Rain,360,2012-10-06 02:55:00
11:55 PM,46.2,43.9,92,30.08,10.0,NNW,17.3,23.0,0.01,Rain,Light Rain,330,2012-10-06 03:55:00